Content
SEND FEEDBACK

Daily
Averages
Monthly
Summary
Ukraine

KRIVOY ROG, UKRAINE


Home > Europe > Ukraine
Elevation: 410 feet     Latitude: 47 56N     Longitude: 033 20E

WEATHER
 
SELECT A DAY
Number of Records: 191,062;   Date Range: 3/26/97 - 9/3/14
 
SHARE

PRINT THIS DATA

[ ← Previous Day ]
WEATHER ALMANAC - JANUARY 31, 2013
[ Next Day → ]
[ °C ]   °F
Weather ElementAverageHighLow
Temperature25.8 °F32 °F (4:00 pm)15.8 °F (4:00 am)
Dewpoint25.3 °F32 °F (4:00 pm)15.8 °F (4:00 am)
Humidity98 %100 % (12:30 am)55 % (3:00 pm)
Barometer29.77 in29.98 in (12:30 am)29.65 in (4:00 pm)
Wind Speed8.4 mph15.7 mph (2:30 pm)
Weather ElementAverage
Visibility0.9 mi
Wind DirectionSSE (170.4 °)

Weather ElementTotal
Precipitation---
Heating Degree Days41.1 (Base 65)
Averaged from 47 records on January 31, 2013
WEATHER CONDITIONS BREAKOUT
WIND DIRECTION BREAKOUT
WEATHER BY HOUR - JANUARY 31, 2013
[ °C ]   °F
Local TimeTemperatureDewpointHumidityBarometerVisibilityWind DirectionWind SpeedGust SpeedPrecipitationEventsConditions
12:30 AM19.4 °F19.4 °F100 %29.98 in0.0 miCalmFogLight Freezing Fog
1:00 AM17.6 °F17.6 °F100 %29.95 in0.0 miCalmFogLight Freezing Fog
1:30 AM17.6 °F17.6 °F100 %29.95 in0.0 miCalmFogLight Freezing Fog
2:00 AM17.6 °F17.6 °F100 %29.95 in0.0 miCalmFogLight Freezing Fog
2:30 AM17.6 °F17.6 °F100 %29.92 in0.0 miSouth (190°)4.5 mphFogLight Freezing Fog
3:00 AM17.6 °F17.6 °F100 %29.92 in0.0 miVariable4.5 mphFogLight Freezing Fog
3:30 AM17.6 °F17.6 °F100 %29.92 in0.0 miVariable2.2 mphFogLight Freezing Fog
4:00 AM15.8 °F15.8 °F100 %29.89 in0.0 miSSE (150°)6.7 mphFogLight Freezing Fog
4:30 AM15.8 °F15.8 °F100 %29.89 in0.0 miSouth (190°)6.7 mphFogLight Freezing Fog
5:00 AM17.6 °F17.6 °F100 %29.89 in0.0 miSSW (210°)4.5 mphFogLight Freezing Fog
5:30 AM17.6 °F17.6 °F100 %29.89 in0.0 miSouth (180°)4.5 mphFogLight Freezing Fog
6:00 AM19.4 °F19.4 °F100 %29.89 in0.0 miSSW (200°)8.9 mphFogLight Freezing Fog
6:30 AM19.4 °F19.4 °F100 %29.86 in0.0 miSouth (180°)6.7 mphFogLight Freezing Fog
7:00 AM21.2 °F21.2 °F100 %29.86 in0.1 miSSE (150°)6.7 mphFogLight Freezing Fog
7:30 AM21.2 °F21.2 °F100 %29.83 in0.0 miSSE (150°)6.7 mphFogLight Freezing Fog
8:00 AM21.2 °F21.2 °F100 %29.83 in0.1 miSSE (160°)6.7 mphFogLight Freezing Fog
8:30 AM21.2 °F21.2 °F100 %29.83 in0.1 miSouth (170°)6.7 mphFogLight Freezing Fog
9:00 AM24.8 °F24.8 °F100 %29.83 in0.1 miSouth (190°)11.2 mphFogLight Freezing Fog
9:30 AM24.8 °F24.8 °F100 %29.80 in0.2 miSouth (190°)11.2 mphFogLight Freezing Fog
10:00 AM26.6 °F24.8 °F93 %29.80 in1.1 miSouth (180°)11.2 mphOvercast
10:30 AM26.6 °F24.8 °F93 %29.80 inSouth (180°)8.9 mphOvercast
11:00 AM26.6 °F26.6 °F100 %29.80 inSouth (180°)8.9 mphOvercast
11:30 AM26.6 °F26.6 °F100 %29.77 in6.2 miSouth (170°)11.2 mphOvercast
12:00 PM28.4 °F28.4 °F100 %29.74 in1.3 miSouth (170°)8.9 mphSnowLight Snow
12:30 PM28.4 °F28.4 °F100 %29.74 in0.7 miSSE (160°)11.2 mphSnowSnow
1:00 PM28.4 °F26.6 °F93 %29.71 in1.1 miSSE (160°)11.2 mphSnowSnow
1:30 PM28.4 °F26.6 °F93 %29.71 in1.0 miSouth (170°)13.4 mphSnowSnow
2:00 PM28.4 °F26.6 °F93 %29.71 inSouth (170°)11.2 mphSnowLight Snow
2:30 PM28.4 °F26.6 °F93 %29.68 inSouth (180°)15.7 mphOvercast
3:00 PM30.2 °F15.8 °F55 %29.68 in1.4 miSouth (180°)13.4 mphSnowLight Snow
3:30 PM30.2 °F28.4 °F93 %29.68 in0.4 miSouth (190°)13.4 mphSnowHeavy Snow
4:00 PM32.0 °F32.0 °F100 %29.65 in0.7 miSouth (180°)15.7 mphSnowSnow
4:30 PM32.0 °F32.0 °F100 %29.65 in0.7 miSouth (180°)13.4 mphSnowSnow
5:00 PM32.0 °F32.0 °F100 %29.65 in0.7 miSouth (180°)13.4 mphSnowSnow
5:30 PM32.0 °F32.0 °F100 %29.65 in0.5 miSSW (200°)13.4 mphSnowHeavy Snow
6:00 PM32.0 °F32.0 °F100 %29.65 in0.7 miSSW (200°)13.4 mphSnowSnow
6:30 PM32.0 °F32.0 °F100 %29.65 in1.2 miSW (220°)11.2 mphSnowSnow
7:00 PM32.0 °F32.0 °F100 %29.65 in1.8 miSW (220°)11.2 mphSnowLight Snow
7:30 PM32.0 °F32.0 °F100 %29.65 in2.5 miSW (230°)8.9 mphSnowLight Snow
8:00 PM32.0 °F32.0 °F100 %29.65 in1.5 miWSW (250°)8.9 mphSnowLight Snow
8:30 PM32.0 °F32.0 °F100 %29.65 inSW (230°)6.7 mphSnowLight Snow
9:00 PM32.0 °F32.0 °F100 %29.65 in3.1 miWSW (250°)6.7 mphOvercast
9:30 PM32.0 °F32.0 °F100 %29.65 in6.2 miWest (260°)6.7 mphOvercast
10:00 PM32.0 °F32.0 °F100 %29.65 inWSW (250°)6.7 mphOvercast
10:30 PM32.0 °F32.0 °F100 %29.65 in1.3 miWSW (250°)6.7 mphOvercast
11:00 PM32.0 °F32.0 °F100 %29.65 inWSW (250°)6.7 mphOvercast
11:30 PM32.0 °F32.0 °F100 %29.65 in2.2 miWest (260°)6.7 mphOvercast
Hourly data recorded from UKDR, located miles away from Krivoy Rog, Ukraine







STORIES FROM OUR PARTNERS